| time (UTC) | temp F | wind direction | speed MPH | gust MPH | rain 1hr in | rain 24hr in | rain mn in | humidity % | barometer mb |
| 20260905001536 | 69 | 0 | 0.0 | 0.0 | 0.00 | 0.30 | 0.25 | 61 | 1012.1 |
| 20260904231539 | 72 | 0 | 0.0 | 0.0 | 0.00 | 0.30 | 0.25 | 60 | 1011.9 |
| 20260904230058 | 74 | 0 | 0.0 | 0.0 | 0.00 | 0.30 | 0.25 | 57 | 1011.8 |
| 20260904224537 | 75 | 0 | 0.0 | 0.0 | 0.00 | 0.30 | 0.25 | 55 | 1011.8 |
| 20260904220039 | 78 | 0 | 0.0 | 1.0 | 0.00 | 0.30 | 0.25 | 49 | 1012.2 |
| 20260904213040 | 80 | 0 | 0.0 | 1.0 | 0.00 | 0.30 | 0.25 | 47 | 1012.4 |
| 20260904203036 | 81 | 233 | 0.0 | 3.0 | 0.00 | 0.30 | 0.25 | 46 | 1011.9 |
| 20260904183037 | 82 | 113 | 1.0 | 2.0 | 0.00 | 0.30 | 0.25 | 43 | 1013.1 |
| 20260904174538 | 79 | 231 | 0.0 | 2.0 | 0.00 | 0.30 | 0.25 | 48 | 1013.1 |
| 20260904173040 | 79 | 84 | 0.0 | 2.0 | 0.00 | 0.30 | 0.25 | 46 | 1013.4 |
| 20260904164538 | 79 | 0 | 1.0 | 6.0 | 0.00 | 0.30 | 0.25 | 46 | 1013.5 |
| 20260904140034 | 78 | 0 | 0.0 | 3.0 | 0.00 | 0.30 | 0.25 | 51 | 1013.6 |
| 20260904130056 | 75 | 0 | 0.0 | 1.0 | 0.00 | 0.30 | 0.25 | 56 | 1013.6 |
| 20260904120043 | 71 | 0 | 0.0 | 1.0 | 0.00 | 0.30 | 0.25 | 64 | 1013.7 |
| 20260904110039 | 69 | 0 | 0.0 | 1.0 | 0.00 | 0.30 | 0.25 | 64 | 1013.3 |
| 20260904101541 | 69 | 0 | 0.0 | 1.0 | 0.00 | 0.30 | 0.25 | 64 | 1012.9 |
| 20260904091538 | 69 | 0 | 0.0 | 0.0 | 0.01 | 0.32 | 0.25 | 64 | 1012.9 |
| 20260904083038 | 68 | 0 | 0.0 | 0.0 | 0.00 | 0.32 | 0.24 | 64 | 1012.9 |
| 20260904074536 | 69 | 0 | 0.0 | 0.0 | 0.00 | 0.50 | 0.24 | 64 | 1012.7 |
| 20260904073038 | 69 | 0 | 0.0 | 1.0 | 0.00 | 0.50 | 0.24 | 64 | 1012.5 |
| 20260904064536 | 68 | 0 | 0.0 | 0.0 | 0.00 | 0.62 | 0.24 | 63 | 1011.9 |
| 20260904063040 | 69 | 0 | 0.0 | 0.0 | 0.00 | 0.62 | 0.24 | 63 | 1012.0 |
| 20260904054539 | 69 | 0 | 0.0 | 0.0 | 0.00 | 0.76 | 0.24 | 63 | 1012.2 |
| 20260904044550 | 70 | 0 | 0.0 | 0.0 | 0.24 | 0.93 | 0.24 | 63 | 1012.8 |
| 20260904043059 | 71 | 0 | 0.0 | 2.0 | 0.24 | 0.93 | 0.24 | 63 | 1012.8 |
| 20260904033037 | 71 | 226 | 0.0 | 0.0 | 0.05 | 1.01 | 0.69 | 63 | 1013.4 |
| 20260904031537 | 71 | 0 | 0.0 | 0.0 | 0.00 | 0.96 | 0.64 | 62 | 1013.7 |
| 20260904023039 | 72 | 0 | 0.0 | 0.0 | 0.00 | 1.04 | 0.64 | 62 | 1013.2 |
| 20260904021536 | 72 | 0 | 0.0 | 0.0 | 0.00 | 1.04 | 0.64 | 62 | 1013.4 |
| 20260904013044 | 72 | 0 | 0.0 | 0.0 | 0.00 | 1.04 | 0.64 | 60 | 1013.6 |
| 20260904011537 | 73 | 0 | 0.0 | 0.0 | 0.00 | 1.04 | 0.64 | 60 | 1013.7 |
| 20260904004538 | 73 | 0 | 0.0 | 1.0 | 0.00 | 1.04 | 0.64 | 60 | 1014.0 |